Location: Melara
(45.0500°N, 11.1833°E)
Time: 00:09:25
(UTC+00:00)

UKube-1 - Pass Details

Date: 04 June 2024
Orbit: 581 x 590 km, 98.3° (Epoch: 21 June)

Event Time Altitude Azimuth Distance (km) Brightness Sun altitude
Rises 23:10:50 0° 35° (NE) 2,812 ? -22.4°
Reaches altitude 10° 23:14:21 10° 67° (ENE) 1,905 ? -22.4°
Maximum altitude 23:15:57 12° 90° (E) 1,774 ? -22.4°
Enters shadow 23:16:28 12° 98° (E) 1,787 ? -22.4°
